TimeEST,TemperatureF,Dew PointF,Humidity,Sea Level PressureIn,VisibilityMPH,Wind Direction,Wind SpeedMPH,Gust SpeedMPH,PrecipitationIn,Events,Conditions,WindDirDegrees,DateUTC
12:53 AM,57.0,53.1,87,30.11,10.0,NNW,10.4,-,N/A,,Clear,330,2012-11-09 05:53:00
1:53 AM,57.9,54.0,87,30.11,10.0,NNW,10.4,-,N/A,,Mostly Cloudy,330,2012-11-09 06:53:00
2:53 AM,55.9,53.1,90,30.11,10.0,NNW,9.2,-,N/A,,Clear,330,2012-11-09 07:53:00
3:53 AM,57.0,53.1,87,30.11,10.0,NNW,9.2,-,N/A,,Clear,340,2012-11-09 08:53:00
4:53 AM,57.0,54.0,89,30.12,10.0,NNW,9.2,-,N/A,,Clear,340,2012-11-09 09:53:00
5:53 AM,57.0,54.0,89,30.14,10.0,NNW,8.1,-,N/A,,Partly Cloudy,340,2012-11-09 10:53:00
6:53 AM,57.9,54.0,87,30.15,10.0,NNW,10.4,-,N/A,,Scattered Clouds,340,2012-11-09 11:53:00
7:53 AM,60.1,55.0,83,30.17,10.0,NNW,10.4,-,N/A,,Clear,340,2012-11-09 12:53:00
8:53 AM,66.0,57.0,73,30.19,10.0,North,9.2,-,N/A,,Partly Cloudy,350,2012-11-09 13:53:00
9:53 AM,73.0,48.9,42,30.21,10.0,NE,16.1,20.7,N/A,,Scattered Clouds,50,2012-11-09 14:53:00
10:53 AM,73.0,48.0,41,30.21,10.0,NE,11.5,-,N/A,,Partly Cloudy,50,2012-11-09 15:53:00
11:53 AM,75.0,48.9,40,30.19,10.0,NE,16.1,23.0,N/A,,Scattered Clouds,50,2012-11-09 16:53:00
12:53 PM,75.0,46.9,37,30.18,10.0,NE,12.7,20.7,N/A,,Clear,50,2012-11-09 17:53:00
1:53 PM,73.9,48.9,41,30.17,10.0,NNE,13.8,-,N/A,,Scattered Clouds,30,2012-11-09 18:53:00
2:53 PM,72.0,52.0,49,30.16,10.0,NE,15.0,21.9,N/A,,Scattered Clouds,40,2012-11-09 19:53:00
3:53 PM,71.1,50.0,47,30.16,10.0,NNE,12.7,20.7,N/A,,Scattered Clouds,30,2012-11-09 20:53:00
4:53 PM,71.1,48.0,44,30.17,10.0,NNE,12.7,19.6,N/A,,Scattered Clouds,30,2012-11-09 21:53:00
5:53 PM,70.0,48.0,46,30.16,10.0,NE,15.0,19.6,N/A,,Scattered Clouds,40,2012-11-09 22:53:00
6:53 PM,70.0,51.1,51,30.18,10.0,NE,15.0,-,N/A,,Scattered Clouds,50,2012-11-09 23:53:00
7:53 PM,70.0,50.0,49,30.18,10.0,ENE,16.1,21.9,N/A,,Scattered Clouds,70,2012-11-10 00:53:00
8:53 PM,70.0,53.1,55,30.19,10.0,NE,12.7,-,N/A,,Overcast,50,2012-11-10 01:53:00
9:53 PM,69.1,50.0,51,30.20,10.0,ENE,10.4,-,N/A,,Scattered Clouds,60,2012-11-10 02:53:00
10:53 PM,70.0,54.0,57,30.20,10.0,ENE,16.1,20.7,N/A,,Overcast,70,2012-11-10 03:53:00
11:53 PM,70.0,52.0,53,30.19,10.0,East,15.0,19.6,N/A,,Overcast,80,2012-11-10 04:53:00